Time,TemperatureF,DewpointF,PressureIn,WindDirection,WindDirectionDegrees,WindSpeedMPH,WindSpeedGustMPH,Humidity,HourlyPrecipIn,Conditions,Clouds,dailyrainin,SolarRadiationWatts/m^2,SoftwareType,DateUTC
2013-02-19 00:00:00,35.6,17.9,30.12,SSE,157,5.0,8.0,48,0.00,,,0.00,0,HR-IXPWINDi_r2_v1.2.,2013-02-19 05:00:00,
2013-02-19 00:05:00,35.8,17.6,30.12,SSE,156,4.0,8.0,47,0.00,,,0.00,0,HR-IXPWINDi_r2_v1.2.,2013-02-19 05:05:00,
2013-02-19 00:10:00,35.9,17.6,30.12,South,169,3.0,7.0,47,0.00,,,0.00,0,HR-IXPWINDi_r2_v1.2.,2013-02-19 05:10:00,
2013-02-19 00:15:00,35.9,18.1,30.12,SSE,167,2.0,6.0,48,0.00,,,0.00,0,HR-IXPWINDi_r2_v1.2.,2013-02-19 05:15:00,
2013-02-19 00:20:00,35.9,18.1,30.12,SSE,167,2.0,6.0,48,0.00,,,0.00,0,HR-IXPWINDi_r2_v1.2.,2013-02-19 05:20:00,
2013-02-19 00:26:00,35.9,18.6,30.11,SSE,155,2.0,6.0,49,0.00,,,0.00,0,HR-IXPWINDi_r2_v1.2.,2013-02-19 05:26:00,
2013-02-19 00:31:00,35.9,18.6,30.11,SSE,157,4.0,7.0,49,0.00,,,0.00,0,HR-IXPWINDi_r2_v1.2.,2013-02-19 05:31:00,
2013-02-19 00:36:00,35.9,19.1,30.10,SE,146,3.0,8.0,50,0.00,,,0.00,0,HR-IXPWINDi_r2_v1.2.,2013-02-19 05:36:00,
2013-02-19 00:41:00,35.9,19.1,30.09,SSE,157,4.0,8.0,50,0.00,,,0.00,0,HR-IXPWINDi_r2_v1.2.,2013-02-19 05:41:00,
2013-02-19 00:46:00,36.0,19.6,30.09,SSE,149,5.0,9.0,51,0.00,,,0.00,0,HR-IXPWINDi_r2_v1.2.,2013-02-19 05:46:00,
2013-02-19 00:51:00,36.0,19.6,30.09,SE,144,4.0,13.0,51,0.00,,,0.00,0,HR-IXPWINDi_r2_v1.2.,2013-02-19 05:51:00,
2013-02-19 00:56:00,36.0,20.1,30.08,SSE,148,9.0,13.0,52,0.00,,,0.00,0,HR-IXPWINDi_r2_v1.2.,2013-02-19 05:56:00,
2013-02-19 01:02:00,36.1,20.2,30.08,SSE,162,5.0,11.0,52,0.00,,,0.00,0,HR-IXPWINDi_r2_v1.2.,2013-02-19 06:02:00,
2013-02-19 01:07:00,36.2,20.3,30.08,SSE,158,6.0,10.0,52,0.00,,,0.00,0,HR-IXPWINDi_r2_v1.2.,2013-02-19 06:07:00,
2013-02-19 01:12:00,36.3,20.4,30.08,SSE,154,3.0,9.0,52,0.00,,,0.00,0,HR-IXPWINDi_r2_v1.2.,2013-02-19 06:12:00,
2013-02-19 01:17:00,36.3,20.8,30.08,SSE,153,4.0,8.0,53,0.00,,,0.00,0,HR-IXPWINDi_r2_v1.2.,2013-02-19 06:17:00,
2013-02-19 01:22:00,36.3,20.8,30.08,SSE,152,4.0,8.0,53,0.00,,,0.00,0,HR-IXPWINDi_r2_v1.2.,2013-02-19 06:22:00,
2013-02-19 01:28:00,36.2,20.7,30.08,SSE,163,3.0,7.0,53,0.00,,,0.00,0,HR-IXPWINDi_r2_v1.2.,2013-02-19 06:28:00,
2013-02-19 01:33:00,36.2,20.7,30.08,SSE,163,2.0,6.0,53,0.00,,,0.00,0,HR-IXPWINDi_r2_v1.2.,2013-02-19 06:33:00,
2013-02-19 01:38:00,36.1,21.1,30.08,SSE,163,3.0,6.0,54,0.00,,,0.00,0,HR-IXPWINDi_r2_v1.2.,2013-02-19 06:38:00,
2013-02-19 01:43:00,36.0,21.0,30.08,SSE,168,3.0,6.0,54,0.00,,,0.00,0,HR-IXPWINDi_r2_v1.2.,2013-02-19 06:43:00,
2013-02-19 01:48:00,35.9,21.3,30.08,South,179,5.0,7.0,55,0.00,,,0.00,0,HR-IXPWINDi_r2_v1.2.,2013-02-19 06:48:00,
2013-02-19 01:54:00,36.0,21.8,30.08,South,184,5.0,8.0,56,0.00,,,0.00,0,HR-IXPWINDi_r2_v1.2.,2013-02-19 06:54:00,
2013-02-19 01:59:00,36.1,21.9,30.07,SSW,196,4.0,8.0,56,0.00,,,0.00,0,HR-IXPWINDi_r2_v1.2.,2013-02-19 06:59:00,
2013-02-19 02:04:00,36.2,22.0,30.07,SSE,163,8.0,8.0,56,0.00,,,0.00,0,HR-IXPWINDi_r2_v1.2.,2013-02-19 07:04:00,
2013-02-19 02:09:00,36.5,22.3,30.07,SE,141,9.0,11.0,56,0.00,,,0.00,0,HR-IXPWINDi_r2_v1.2.,2013-02-19 07:09:00,
2013-02-19 02:15:00,36.7,22.5,30.07,South,170,6.0,11.0,56,0.00,,,0.00,0,HR-IXPWINDi_r2_v1.2.,2013-02-19 07:15:00,
2013-02-19 02:20:00,36.8,22.6,30.07,SSE,161,8.0,12.0,56,0.00,,,0.00,0,HR-IXPWINDi_r2_v1.2.,2013-02-19 07:20:00,
2013-02-19 02:25:00,36.8,22.6,30.07,SSE,164,4.0,12.0,56,0.00,,,0.00,0,HR-IXPWINDi_r2_v1.2.,2013-02-19 07:25:00,
2013-02-19 02:30:00,36.8,22.6,30.07,South,178,8.0,11.0,56,0.00,,,0.00,0,HR-IXPWINDi_r2_v1.2.,2013-02-19 07:30:00,
2013-02-19 02:35:00,36.7,22.5,30.06,SSE,160,8.0,11.0,56,0.00,,,0.00,0,HR-IXPWINDi_r2_v1.2.,2013-02-19 07:35:00,
2013-02-19 02:41:00,36.6,22.8,30.06,SSE,147,6.0,11.0,57,0.00,,,0.00,0,HR-IXPWINDi_r2_v1.2.,2013-02-19 07:41:00,
2013-02-19 02:46:00,36.6,22.8,30.05,SSE,147,5.0,11.0,57,0.00,,,0.00,0,HR-IXPWINDi_r2_v1.2.,2013-02-19 07:46:00,
2013-02-19 02:51:00,36.6,22.4,30.05,SE,140,5.0,9.0,56,0.00,,,0.00,0,HR-IXPWINDi_r2_v1.2.,2013-02-19 07:51:00,
2013-02-19 02:56:00,36.5,22.3,30.04,SSE,150,8.0,9.0,56,0.00,,,0.00,0,HR-IXPWINDi_r2_v1.2.,2013-02-19 07:56:00,
2013-02-19 03:01:00,36.5,22.7,30.04,SSE,158,1.0,10.0,57,0.00,,,0.00,0,HR-IXPWINDi_r2_v1.2.,2013-02-19 08:01:00,
2013-02-19 03:07:00,36.4,22.6,30.04,SSE,162,9.0,11.0,57,0.00,,,0.00,0,HR-IXPWINDi_r2_v1.2.,2013-02-19 08:07:00,
2013-02-19 03:12:00,36.4,22.6,30.03,South,171,3.0,11.0,57,0.00,,,0.00,0,HR-IXPWINDi_r2_v1.2.,2013-02-19 08:12:00,
2013-02-19 03:17:00,36.4,22.6,30.03,South,171,6.0,12.0,57,0.00,,,0.00,0,HR-IXPWINDi_r2_v1.2.,2013-02-19 08:17:00,
2013-02-19 03:22:00,36.5,22.7,30.03,SSE,159,7.0,12.0,57,0.00,,,0.00,0,HR-IXPWINDi_r2_v1.2.,2013-02-19 08:22:00,
2013-02-19 03:27:00,36.4,22.2,30.03,SSE,148,7.0,11.0,56,0.00,,,0.00,0,HR-IXPWINDi_r2_v1.2.,2013-02-19 08:27:00,
2013-02-19 03:33:00,36.4,22.2,30.03,SSE,152,7.0,11.0,56,0.00,,,0.00,0,HR-IXPWINDi_r2_v1.2.,2013-02-19 08:33:00,
2013-02-19 03:38:00,36.3,22.1,30.03,SSE,156,7.0,11.0,56,0.00,,,0.00,0,HR-IXPWINDi_r2_v1.2.,2013-02-19 08:38:00,
2013-02-19 03:43:00,36.2,22.4,30.03,SE,145,6.0,10.0,57,0.00,,,0.00,0,HR-IXPWINDi_r2_v1.2.,2013-02-19 08:43:00,
2013-02-19 03:48:00,36.1,22.3,30.03,SSE,154,7.0,10.0,57,0.00,,,0.00,0,HR-IXPWINDi_r2_v1.2.,2013-02-19 08:48:00,
2013-02-19 03:54:00,36.0,22.2,30.02,SSE,151,4.0,10.0,57,0.00,,,0.00,0,HR-IXPWINDi_r2_v1.2.,2013-02-19 08:54:00,
2013-02-19 03:59:00,35.9,22.1,30.01,SE,146,9.0,10.0,57,0.00,,,0.00,0,HR-IXPWINDi_r2_v1.2.,2013-02-19 08:59:00,
2013-02-19 04:04:00,35.7,22.0,30.00,SE,143,5.0,10.0,57,0.00,,,0.00,0,HR-IXPWINDi_r2_v1.2.,2013-02-19 09:04:00,
2013-02-19 04:09:00,35.7,22.4,30.00,SSE,150,0.0,10.0,58,0.00,,,0.00,0,HR-IXPWINDi_r2_v1.2.,2013-02-19 09:09:00,
2013-02-19 04:14:00,35.6,22.3,30.01,SSE,160,4.0,7.0,58,0.00,,,0.00,0,HR-IXPWINDi_r2_v1.2.,2013-02-19 09:14:00,
2013-02-19 04:20:00,35.5,22.2,30.01,SSE,161,3.0,7.0,58,0.00,,,0.00,0,HR-IXPWINDi_r2_v1.2.,2013-02-19 09:20:00,
2013-02-19 04:25:00,35.3,22.4,30.01,SSE,163,3.0,7.0,59,0.00,,,0.00,0,HR-IXPWINDi_r2_v1.2.,2013-02-19 09:25:00,
2013-02-19 04:30:00,35.3,22.4,30.00,SSE,151,10.0,10.0,59,0.00,,,0.00,0,HR-IXPWINDi_r2_v1.2.,2013-02-19 09:30:00,
2013-02-19 04:35:00,35.4,22.9,30.00,SSE,162,3.0,10.0,60,0.00,,,0.00,0,HR-IXPWINDi_r2_v1.2.,2013-02-19 09:35:00,
2013-02-19 04:41:00,35.6,23.1,29.99,SSE,162,1.0,8.0,60,0.00,,,0.00,0,HR-IXPWINDi_r2_v1.2.,2013-02-19 09:41:00,
2013-02-19 04:46:00,35.8,23.3,29.99,SE,142,3.0,8.0,60,0.00,,,0.00,0,HR-IXPWINDi_r2_v1.2.,2013-02-19 09:46:00,
2013-02-19 04:51:00,36.0,23.5,29.98,SSE,153,4.0,8.0,60,0.00,,,0.00,0,HR-IXPWINDi_r2_v1.2.,2013-02-19 09:51:00,
2013-02-19 04:56:00,36.1,23.6,29.97,SE,145,4.0,8.0,60,0.00,,,0.00,0,HR-IXPWINDi_r2_v1.2.,2013-02-19 09:56:00,
2013-02-19 05:02:00,36.2,23.6,29.97,SSE,162,3.0,7.0,60,0.00,,,0.00,0,HR-IXPWINDi_r2_v1.2.,2013-02-19 10:02:00,
2013-02-19 05:07:00,36.4,23.8,29.98,SSE,168,1.0,7.0,60,0.00,,,0.00,0,HR-IXPWINDi_r2_v1.2.,2013-02-19 10:07:00,
2013-02-19 05:12:00,36.5,23.9,29.98,South,180,3.0,8.0,60,0.00,,,0.00,0,HR-IXPWINDi_r2_v1.2.,2013-02-19 10:12:00,
2013-02-19 05:17:00,36.7,24.1,29.98,SSE,160,6.0,8.0,60,0.00,,,0.00,0,HR-IXPWINDi_r2_v1.2.,2013-02-19 10:17:00,
2013-02-19 05:22:00,37.0,24.4,29.98,SE,146,6.0,8.0,60,0.00,,,0.00,0,HR-IXPWINDi_r2_v1.2.,2013-02-19 10:22:00,
2013-02-19 05:27:00,37.3,24.7,29.98,SSE,163,10.0,11.0,60,0.00,,,0.00,0,HR-IXPWINDi_r2_v1.2.,2013-02-19 10:27:00,
2013-02-19 05:32:00,37.6,25.0,29.98,SE,129,7.0,13.0,60,0.00,,,0.00,0,HR-IXPWINDi_r2_v1.2.,2013-02-19 10:32:00,
2013-02-19 05:38:00,37.9,24.8,29.97,SSE,165,7.0,13.0,59,0.00,,,0.00,0,HR-IXPWINDi_r2_v1.2.,2013-02-19 10:38:00,
2013-02-19 05:43:00,38.0,24.9,29.97,South,173,6.0,10.0,59,0.00,,,0.00,0,HR-IXPWINDi_r2_v1.2.,2013-02-19 10:43:00,
2013-02-19 05:48:00,38.2,25.1,29.96,SSE,156,8.0,11.0,59,0.00,,,0.00,0,HR-IXPWINDi_r2_v1.2.,2013-02-19 10:48:00,
2013-02-19 05:53:00,38.3,25.2,29.97,SSW,207,2.0,11.0,59,0.00,,,0.00,0,HR-IXPWINDi_r2_v1.2.,2013-02-19 10:53:00,
2013-02-19 05:58:00,38.4,25.3,29.97,SSE,158,8.0,10.0,59,0.00,,,0.00,0,HR-IXPWINDi_r2_v1.2.,2013-02-19 10:58:00,
2013-02-19 06:04:00,38.6,25.5,29.97,SSE,154,8.0,11.0,59,0.00,,,0.00,0,HR-IXPWINDi_r2_v1.2.,2013-02-19 11:04:00,
2013-02-19 06:09:00,38.6,25.5,29.97,SSE,167,6.0,11.0,59,0.00,,,0.00,0,HR-IXPWINDi_r2_v1.2.,2013-02-19 11:09:00,
2013-02-19 06:14:00,38.7,25.6,29.96,SSE,161,8.0,10.0,59,0.00,,,0.00,0,HR-IXPWINDi_r2_v1.2.,2013-02-19 11:14:00,
2013-02-19 06:19:00,38.8,25.7,29.98,SE,143,5.0,13.0,59,0.00,,,0.00,0,HR-IXPWINDi_r2_v1.2.,2013-02-19 11:19:00,
2013-02-19 06:24:00,38.9,25.8,29.97,South,175,4.0,13.0,59,0.00,,,0.00,0,HR-IXPWINDi_r2_v1.2.,2013-02-19 11:24:00,
2013-02-19 06:29:00,39.0,25.9,29.97,South,175,1.0,10.0,59,0.00,,,0.00,0,HR-IXPWINDi_r2_v1.2.,2013-02-19 11:29:00,
2013-02-19 06:34:00,39.1,26.0,29.97,SSE,150,11.0,12.0,59,0.00,,,0.00,0,HR-IXPWINDi_r2_v1.2.,2013-02-19 11:34:00,
2013-02-19 06:40:00,39.2,26.1,29.97,South,173,5.0,12.0,59,0.00,,,0.00,0,HR-IXPWINDi_r2_v1.2.,2013-02-19 11:40:00,
2013-02-19 06:45:00,39.3,26.2,29.97,SSE,155,6.0,11.0,59,0.00,,,0.00,0,HR-IXPWINDi_r2_v1.2.,2013-02-19 11:45:00,
2013-02-19 06:50:00,39.3,26.2,29.97,South,175,5.0,12.0,59,0.00,,,0.00,0,HR-IXPWINDi_r2_v1.2.,2013-02-19 11:50:00,
2013-02-19 06:55:00,39.4,26.3,29.96,SSE,168,6.0,12.0,59,0.00,,,0.00,0,HR-IXPWINDi_r2_v1.2.,2013-02-19 11:55:00,
2013-02-19 07:00:00,39.5,26.3,29.96,South,181,6.0,13.0,59,0.00,,,0.00,0,HR-IXPWINDi_r2_v1.2.,2013-02-19 12:00:00,
2013-02-19 07:05:00,39.5,26.3,29.96,SE,143,9.0,13.0,59,0.00,,,0.00,5,HR-IXPWINDi_r2_v1.2.,2013-02-19 12:05:00,
2013-02-19 07:10:00,39.5,26.3,29.95,SSE,150,10.0,13.0,59,0.00,,,0.00,11,HR-IXPWINDi_r2_v1.2.,2013-02-19 12:10:00,
2013-02-19 07:16:00,39.5,26.3,29.95,SE,142,10.0,13.0,59,0.00,,,0.00,16,HR-IXPWINDi_r2_v1.2.,2013-02-19 12:16:00,
2013-02-19 07:21:00,39.4,26.3,29.95,SE,145,5.0,13.0,59,0.00,,,0.00,19,HR-IXPWINDi_r2_v1.2.,2013-02-19 12:21:00,
2013-02-19 07:26:00,39.5,26.3,29.94,SSE,147,9.0,15.0,59,0.00,,,0.00,26,HR-IXPWINDi_r2_v1.2.,2013-02-19 12:26:00,
2013-02-19 07:31:00,39.6,26.4,29.93,SE,137,9.0,17.0,59,0.00,,,0.00,32,HR-IXPWINDi_r2_v1.2.,2013-02-19 12:31:00,
2013-02-19 07:37:00,39.7,26.5,29.94,SSE,154,7.0,17.0,59,0.00,,,0.00,19,HR-IXPWINDi_r2_v1.2.,2013-02-19 12:37:00,
2013-02-19 07:42:00,39.8,26.6,29.94,SSW,198,3.0,15.0,59,0.00,,,0.00,25,HR-IXPWINDi_r2_v1.2.,2013-02-19 12:42:00,
2013-02-19 07:47:00,39.9,26.7,29.93,SE,140,10.0,16.0,59,0.00,,,0.00,28,HR-IXPWINDi_r2_v1.2.,2013-02-19 12:47:00,
2013-02-19 07:52:00,40.0,26.8,29.93,SSW,192,6.0,16.0,59,0.00,,,0.00,42,HR-IXPWINDi_r2_v1.2.,2013-02-19 12:52:00,
2013-02-19 07:57:00,40.1,26.9,29.93,SE,146,8.0,15.0,59,0.00,,,0.00,40,HR-IXPWINDi_r2_v1.2.,2013-02-19 12:57:00,
2013-02-19 08:03:00,40.2,26.6,29.93,South,175,12.0,15.0,58,0.00,,,0.00,39,HR-IXPWINDi_r2_v1.2.,2013-02-19 13:03:00,
2013-02-19 08:08:00,40.2,26.6,29.94,South,175,5.0,15.0,58,0.00,,,0.00,26,HR-IXPWINDi_r2_v1.2.,2013-02-19 13:08:00,
2013-02-19 08:13:00,40.2,26.6,29.94,South,177,11.0,16.0,58,0.00,,,0.00,18,HR-IXPWINDi_r2_v1.2.,2013-02-19 13:13:00,
2013-02-19 08:18:00,40.3,26.7,29.94,South,190,1.0,16.0,58,0.00,,,0.00,16,HR-IXPWINDi_r2_v1.2.,2013-02-19 13:18:00,
2013-02-19 08:23:00,40.3,26.7,29.94,South,180,11.0,13.0,58,0.00,,,0.00,18,HR-IXPWINDi_r2_v1.2.,2013-02-19 13:23:00,
2013-02-19 08:28:00,40.3,26.7,29.94,SSE,158,4.0,14.0,58,0.00,,,0.00,11,HR-IXPWINDi_r2_v1.2.,2013-02-19 13:28:00,
2013-02-19 08:33:00,40.3,26.7,29.94,South,186,5.0,14.0,58,0.00,,,0.00,11,HR-IXPWINDi_r2_v1.2.,2013-02-19 13:33:00,
2013-02-19 08:39:00,40.3,26.7,29.94,SSE,161,13.0,15.0,58,0.00,,,0.00,14,HR-IXPWINDi_r2_v1.2.,2013-02-19 13:39:00,
2013-02-19 08:44:00,40.2,27.8,29.94,SSE,157,11.0,18.0,61,0.00,,,0.00,14,HR-IXPWINDi_r2_v1.2.,2013-02-19 13:44:00,
2013-02-19 08:49:00,39.8,29.0,29.94,SE,137,10.0,20.0,65,0.00,,,0.00,25,HR-IXPWINDi_r2_v1.2.,2013-02-19 13:49:00,
2013-02-19 08:54:00,39.0,30.4,29.93,SSE,164,15.0,23.0,71,0.00,,,0.00,21,HR-IXPWINDi_r2_v1.2.,2013-02-19 13:54:00,
2013-02-19 09:00:00,38.4,30.8,29.94,South,171,13.0,23.0,74,0.00,,,0.00,21,HR-IXPWINDi_r2_v1.2.,2013-02-19 14:00:00,
2013-02-19 09:05:00,38.1,31.2,29.93,SE,142,14.0,19.0,76,0.00,,,0.00,32,HR-IXPWINDi_r2_v1.2.,2013-02-19 14:05:00,
2013-02-19 09:10:00,38.0,31.1,29.93,SSE,158,11.0,22.0,76,0.00,,,0.00,26,HR-IXPWINDi_r2_v1.2.,2013-02-19 14:10:00,
2013-02-19 09:15:00,38.1,31.5,29.92,SE,146,7.0,22.0,77,0.00,,,0.00,26,HR-IXPWINDi_r2_v1.2.,2013-02-19 14:15:00,
2013-02-19 09:20:00,38.1,31.5,29.92,South,170,12.0,21.0,77,0.00,,,0.00,23,HR-IXPWINDi_r2_v1.2.,2013-02-19 14:20:00,
2013-02-19 09:25:00,38.0,31.7,29.92,South,175,12.0,21.0,78,0.00,,,0.00,32,HR-IXPWINDi_r2_v1.2.,2013-02-19 14:25:00,
2013-02-19 09:31:00,37.9,31.6,29.91,SSE,168,13.0,21.0,78,0.00,,,0.01,44,HR-IXPWINDi_r2_v1.2.,2013-02-19 14:31:00,
2013-02-19 09:36:00,37.9,31.6,29.91,South,180,10.0,19.0,78,0.00,,,0.01,56,HR-IXPWINDi_r2_v1.2.,2013-02-19 14:36:00,
2013-02-19 09:41:00,38.0,32.0,29.91,SSE,163,5.0,19.0,79,0.00,,,0.01,46,HR-IXPWINDi_r2_v1.2.,2013-02-19 14:41:00,
2013-02-19 09:46:00,38.2,32.2,29.91,SSE,161,9.0,18.0,79,0.00,,,0.01,39,HR-IXPWINDi_r2_v1.2.,2013-02-19 14:46:00,
2013-02-19 09:51:00,38.3,32.3,29.91,South,184,3.0,18.0,79,0.00,,,0.01,30,HR-IXPWINDi_r2_v1.2.,2013-02-19 14:51:00,
2013-02-19 09:56:00,38.6,32.9,29.91,South,173,9.0,18.0,80,0.00,,,0.01,37,HR-IXPWINDi_r2_v1.2.,2013-02-19 14:56:00,
2013-02-19 10:02:00,38.8,33.4,29.90,SSE,156,14.0,15.0,81,0.00,,,0.01,26,HR-IXPWINDi_r2_v1.2.,2013-02-19 15:02:00,
2013-02-19 10:07:00,38.9,33.8,29.90,SSW,196,6.0,19.0,82,0.00,,,0.01,32,HR-IXPWINDi_r2_v1.2.,2013-02-19 15:07:00,
2013-02-19 10:12:00,39.1,34.3,29.90,South,189,9.0,19.0,83,0.00,,,0.02,32,HR-IXPWINDi_r2_v1.2.,2013-02-19 15:12:00,
2013-02-19 10:17:00,39.2,35.0,29.90,South,172,16.0,16.0,85,0.00,,,0.02,32,HR-IXPWINDi_r2_v1.2.,2013-02-19 15:17:00,
2013-02-19 10:23:00,39.3,35.4,29.90,SSE,168,7.0,18.0,86,0.00,,,0.02,37,HR-IXPWINDi_r2_v1.2.,2013-02-19 15:23:00,
2013-02-19 10:28:00,39.3,35.4,29.89,SSW,209,13.0,18.0,86,0.00,,,0.02,53,HR-IXPWINDi_r2_v1.2.,2013-02-19 15:28:00,
2013-02-19 10:33:00,39.3,35.7,29.89,South,188,12.0,22.0,87,0.00,,,0.02,63,HR-IXPWINDi_r2_v1.2.,2013-02-19 15:33:00,
2013-02-19 10:38:00,39.3,35.7,29.89,SSE,165,1.0,22.0,87,0.00,,,0.02,62,HR-IXPWINDi_r2_v1.2.,2013-02-19 15:38:00,
2013-02-19 10:43:00,39.3,35.7,29.89,SSE,159,14.0,18.0,87,0.00,,,0.02,69,HR-IXPWINDi_r2_v1.2.,2013-02-19 15:43:00,
2013-02-19 10:49:00,39.3,35.4,29.89,SW,215,6.0,15.0,86,0.00,,,0.02,70,HR-IXPWINDi_r2_v1.2.,2013-02-19 15:49:00,
2013-02-19 10:54:00,39.2,35.3,29.89,South,184,6.0,16.0,86,0.00,,,0.02,69,HR-IXPWINDi_r2_v1.2.,2013-02-19 15:54:00,
2013-02-19 10:59:00,39.3,35.4,29.88,South,171,10.0,17.0,86,0.00,,,0.02,39,HR-IXPWINDi_r2_v1.2.,2013-02-19 15:59:00,
2013-02-19 11:04:00,39.3,35.4,29.88,SSW,199,5.0,17.0,86,0.00,,,0.02,28,HR-IXPWINDi_r2_v1.2.,2013-02-19 16:04:00,
2013-02-19 11:09:00,39.2,35.3,29.88,South,173,3.0,15.0,86,0.00,,,0.02,37,HR-IXPWINDi_r2_v1.2.,2013-02-19 16:09:00,
2013-02-19 11:14:00,39.2,35.3,29.88,SSE,166,9.0,14.0,86,0.00,,,0.02,77,HR-IXPWINDi_r2_v1.2.,2013-02-19 16:14:00,
2013-02-19 11:19:00,39.2,35.6,29.88,SE,134,12.0,15.0,87,0.00,,,0.03,104,HR-IXPWINDi_r2_v1.2.,2013-02-19 16:19:00,
2013-02-19 11:24:00,39.2,35.6,29.87,SSE,165,8.0,15.0,87,0.00,,,0.03,77,HR-IXPWINDi_r2_v1.2.,2013-02-19 16:24:00,
2013-02-19 11:30:00,39.3,36.0,29.86,South,169,1.0,14.0,88,0.00,,,0.03,81,HR-IXPWINDi_r2_v1.2.,2013-02-19 16:30:00,
2013-02-19 11:35:00,39.3,36.0,29.86,South,186,10.0,15.0,88,0.00,,,0.03,100,HR-IXPWINDi_r2_v1.2.,2013-02-19 16:35:00,
2013-02-19 11:40:00,39.4,36.4,29.86,SE,133,8.0,15.0,89,0.00,,,0.03,111,HR-IXPWINDi_r2_v1.2.,2013-02-19 16:40:00,
2013-02-19 11:45:00,39.6,36.6,29.85,SE,144,9.0,14.0,89,0.00,,,0.03,97,HR-IXPWINDi_r2_v1.2.,2013-02-19 16:45:00,
2013-02-19 11:50:00,39.7,36.7,29.85,South,174,5.0,13.0,89,0.00,,,0.03,81,HR-IXPWINDi_r2_v1.2.,2013-02-19 16:50:00,
2013-02-19 11:55:00,39.6,36.6,29.84,SSE,160,12.0,17.0,89,0.00,,,0.03,69,HR-IXPWINDi_r2_v1.2.,2013-02-19 16:55:00,
2013-02-19 12:00:00,39.7,36.7,29.83,South,174,10.0,17.0,89,0.00,,,0.03,109,HR-IXPWINDi_r2_v1.2.,2013-02-19 17:00:00,
2013-02-19 12:05:00,39.8,36.8,29.83,SSE,155,14.0,19.0,89,0.00,,,0.03,97,HR-IXPWINDi_r2_v1.2.,2013-02-19 17:05:00,
2013-02-19 12:10:00,40.0,37.0,29.83,SSE,148,11.0,19.0,89,0.00,,,0.03,104,HR-IXPWINDi_r2_v1.2.,2013-02-19 17:10:00,
2013-02-19 12:15:00,40.2,37.2,29.82,South,183,14.0,21.0,89,0.00,,,0.03,104,HR-IXPWINDi_r2_v1.2.,2013-02-19 17:15:00,
2013-02-19 12:21:00,40.4,37.4,29.82,South,182,5.0,21.0,89,0.00,,,0.03,120,HR-IXPWINDi_r2_v1.2.,2013-02-19 17:21:00,
2013-02-19 12:26:00,40.7,37.4,29.82,SSE,150,14.0,19.0,88,0.00,,,0.03,127,HR-IXPWINDi_r2_v1.2.,2013-02-19 17:26:00,
2013-02-19 12:31:00,40.9,37.6,29.81,SSE,151,10.0,17.0,88,0.00,,,0.03,74,HR-IXPWINDi_r2_v1.2.,2013-02-19 17:31:00,
2013-02-19 12:36:00,41.0,37.4,29.81,SSE,166,7.0,16.0,87,0.00,,,0.03,53,HR-IXPWINDi_r2_v1.2.,2013-02-19 17:36:00,
2013-02-19 12:42:00,41.0,37.4,29.80,South,177,4.0,18.0,87,0.00,,,0.03,56,HR-IXPWINDi_r2_v1.2.,2013-02-19 17:42:00,
2013-02-19 12:47:00,41.1,37.5,29.80,South,170,6.0,18.0,87,0.00,,,0.03,65,HR-IXPWINDi_r2_v1.2.,2013-02-19 17:47:00,
2013-02-19 12:52:00,41.1,37.5,29.79,WSW,254,6.0,18.0,87,0.00,,,0.03,104,HR-IXPWINDi_r2_v1.2.,2013-02-19 17:52:00,
2013-02-19 12:57:00,41.3,38.0,29.79,South,182,4.0,18.0,88,0.00,,,0.03,77,HR-IXPWINDi_r2_v1.2.,2013-02-19 17:57:00,
2013-02-19 13:03:00,41.3,38.0,29.79,South,187,8.0,18.0,88,0.00,,,0.03,86,HR-IXPWINDi_r2_v1.2.,2013-02-19 18:03:00,
2013-02-19 13:08:00,41.4,37.8,29.78,SSE,148,2.0,18.0,87,0.00,,,0.03,77,HR-IXPWINDi_r2_v1.2.,2013-02-19 18:08:00,
2013-02-19 13:13:00,41.5,37.9,29.78,SSE,167,13.0,21.0,87,0.00,,,0.03,81,HR-IXPWINDi_r2_v1.2.,2013-02-19 18:13:00,
2013-02-19 13:18:00,41.5,37.9,29.77,SSE,167,11.0,21.0,87,0.00,,,0.03,69,HR-IXPWINDi_r2_v1.2.,2013-02-19 18:18:00,
2013-02-19 13:24:00,41.6,38.0,29.77,South,191,14.0,20.0,87,0.00,,,0.03,76,HR-IXPWINDi_r2_v1.2.,2013-02-19 18:24:00,
2013-02-19 13:29:00,41.6,38.0,29.76,SSE,158,13.0,20.0,87,0.00,,,0.03,107,HR-IXPWINDi_r2_v1.2.,2013-02-19 18:29:00,
2013-02-19 13:34:00,41.7,38.1,29.76,SE,127,15.0,19.0,87,0.00,,,0.04,113,HR-IXPWINDi_r2_v1.2.,2013-02-19 18:34:00,
2013-02-19 13:39:00,41.8,38.2,29.76,SSE,163,6.0,19.0,87,0.00,,,0.04,107,HR-IXPWINDi_r2_v1.2.,2013-02-19 18:39:00,
2013-02-19 13:45:00,41.9,38.3,29.75,SSE,157,7.0,20.0,87,0.00,,,0.04,107,HR-IXPWINDi_r2_v1.2.,2013-02-19 18:45:00,
2013-02-19 13:50:00,42.0,38.4,29.75,South,178,9.0,20.0,87,0.00,,,0.04,100,HR-IXPWINDi_r2_v1.2.,2013-02-19 18:50:00,
2013-02-19 13:55:00,42.2,38.6,29.74,South,174,13.0,18.0,87,0.00,,,0.04,104,HR-IXPWINDi_r2_v1.2.,2013-02-19 18:55:00,
2013-02-19 14:01:00,42.3,38.4,29.74,South,186,4.0,18.0,86,0.00,,,0.04,153,HR-IXPWINDi_r2_v1.2.,2013-02-19 19:01:00,
2013-02-19 14:06:00,42.6,39.0,29.73,South,177,5.0,14.0,87,0.00,,,0.04,160,HR-IXPWINDi_r2_v1.2.,2013-02-19 19:06:00,
2013-02-19 14:11:00,42.8,39.2,29.73,South,172,9.0,14.0,87,0.00,,,0.04,120,HR-IXPWINDi_r2_v1.2.,2013-02-19 19:11:00,
2013-02-19 14:16:00,42.9,39.0,29.73,South,175,12.0,19.0,86,0.00,,,0.04,107,HR-IXPWINDi_r2_v1.2.,2013-02-19 19:16:00,
2013-02-19 14:21:00,43.0,39.1,29.72,SSE,147,6.0,19.0,86,0.00,,,0.04,130,HR-IXPWINDi_r2_v1.2.,2013-02-19 19:21:00,
2013-02-19 14:26:00,43.1,39.2,29.72,South,191,13.0,19.0,86,0.00,,,0.04,139,HR-IXPWINDi_r2_v1.2.,2013-02-19 19:26:00,
2013-02-19 14:32:00,43.2,38.9,29.72,South,184,7.0,19.0,85,0.00,,,0.04,127,HR-IXPWINDi_r2_v1.2.,2013-02-19 19:32:00,
2013-02-19 14:37:00,43.3,39.3,29.72,SSW,192,7.0,18.0,86,0.00,,,0.04,130,HR-IXPWINDi_r2_v1.2.,2013-02-19 19:37:00,
2013-02-19 14:42:00,43.4,39.1,29.71,South,188,6.0,19.0,85,0.00,,,0.04,141,HR-IXPWINDi_r2_v1.2.,2013-02-19 19:42:00,
2013-02-19 14:47:00,43.6,39.3,29.71,SSE,165,6.0,19.0,85,0.00,,,0.04,155,HR-IXPWINDi_r2_v1.2.,2013-02-19 19:47:00,
2013-02-19 14:52:00,43.7,39.4,29.70,SSE,163,10.0,16.0,85,0.00,,,0.04,188,HR-IXPWINDi_r2_v1.2.,2013-02-19 19:52:00,
2013-02-19 14:58:00,44.0,39.7,29.70,South,186,14.0,14.0,85,0.00,,,0.04,213,HR-IXPWINDi_r2_v1.2.,2013-02-19 19:58:00,
2013-02-19 15:03:00,44.3,40.0,29.70,South,181,4.0,18.0,85,0.00,,,0.04,229,HR-IXPWINDi_r2_v1.2.,2013-02-19 20:03:00,
2013-02-19 15:08:00,44.7,40.1,29.70,South,173,5.0,18.0,84,0.00,,,0.04,207,HR-IXPWINDi_r2_v1.2.,2013-02-19 20:08:00,
2013-02-19 15:13:00,44.9,40.0,29.69,SSE,150,10.0,19.0,83,0.00,,,0.04,162,HR-IXPWINDi_r2_v1.2.,2013-02-19 20:13:00,
2013-02-19 15:19:00,44.9,40.3,29.69,SSE,167,14.0,19.0,84,0.00,,,0.04,178,HR-IXPWINDi_r2_v1.2.,2013-02-19 20:19:00,
2013-02-19 15:24:00,44.9,40.0,29.69,South,175,6.0,16.0,83,0.00,,,0.04,174,HR-IXPWINDi_r2_v1.2.,2013-02-19 20:24:00,
2013-02-19 15:29:00,44.8,39.9,29.69,South,177,10.0,19.0,83,0.00,,,0.04,171,HR-IXPWINDi_r2_v1.2.,2013-02-19 20:29:00,
2013-02-19 15:34:00,44.8,39.9,29.69,SSE,159,11.0,19.0,83,0.00,,,0.04,169,HR-IXPWINDi_r2_v1.2.,2013-02-19 20:34:00,
2013-02-19 15:39:00,44.9,40.0,29.69,South,182,9.0,19.0,83,0.00,,,0.04,195,HR-IXPWINDi_r2_v1.2.,2013-02-19 20:39:00,
2013-02-19 15:45:00,45.0,40.1,29.69,South,178,11.0,18.0,83,0.00,,,0.04,167,HR-IXPWINDi_r2_v1.2.,2013-02-19 20:45:00,
2013-02-19 15:50:00,45.1,40.2,29.69,South,178,5.0,16.0,83,0.00,,,0.04,200,HR-IXPWINDi_r2_v1.2.,2013-02-19 20:50:00,
2013-02-19 15:55:00,45.6,40.7,29.69,SSW,196,8.0,14.0,83,0.00,,,0.04,564,HR-IXPWINDi_r2_v1.2.,2013-02-19 20:55:00,
2013-02-19 16:00:00,45.8,40.6,29.70,SSE,148,6.0,17.0,82,0.00,,,0.04,288,HR-IXPWINDi_r2_v1.2.,2013-02-19 21:00:00,
2013-02-19 16:05:00,46.0,40.8,29.69,SSE,159,8.0,19.0,82,0.00,,,0.04,279,HR-IXPWINDi_r2_v1.2.,2013-02-19 21:05:00,
2013-02-19 16:10:00,45.9,40.7,29.69,SSE,153,4.0,19.0,82,0.00,,,0.04,327,HR-IXPWINDi_r2_v1.2.,2013-02-19 21:10:00,
2013-02-19 16:16:00,46.0,40.4,29.70,SSW,198,7.0,21.0,81,0.00,,,0.04,341,HR-IXPWINDi_r2_v1.2.,2013-02-19 21:16:00,
2013-02-19 16:21:00,46.1,40.5,29.70,SSE,159,8.0,21.0,81,0.00,,,0.04,308,HR-IXPWINDi_r2_v1.2.,2013-02-19 21:21:00,
2013-02-19 16:26:00,46.0,40.4,29.69,South,170,17.0,21.0,81,0.00,,,0.04,251,HR-IXPWINDi_r2_v1.2.,2013-02-19 21:26:00,
2013-02-19 16:31:00,45.9,40.4,29.69,South,180,12.0,21.0,81,0.00,,,0.04,81,HR-IXPWINDi_r2_v1.2.,2013-02-19 21:31:00,
2013-02-19 16:36:00,45.8,40.3,29.69,SSE,156,9.0,19.0,81,0.00,,,0.04,114,HR-IXPWINDi_r2_v1.2.,2013-02-19 21:36:00,
2013-02-19 16:41:00,45.8,40.6,29.69,South,186,1.0,15.0,82,0.00,,,0.04,42,HR-IXPWINDi_r2_v1.2.,2013-02-19 21:41:00,
2013-02-19 16:47:00,45.8,40.6,29.70,SW,215,5.0,12.0,82,0.00,,,0.04,25,HR-IXPWINDi_r2_v1.2.,2013-02-19 21:47:00,
2013-02-19 16:52:00,45.7,40.5,29.72,SW,234,7.0,12.0,82,0.00,,,0.04,7,HR-IXPWINDi_r2_v1.2.,2013-02-19 21:52:00,
2013-02-19 16:57:00,45.4,40.5,29.73,WSW,250,6.0,17.0,83,0.00,,,0.04,5,HR-IXPWINDi_r2_v1.2.,2013-02-19 21:57:00,
2013-02-19 17:02:00,45.2,40.6,29.74,SW,227,3.0,17.0,84,0.00,,,0.04,7,HR-IXPWINDi_r2_v1.2.,2013-02-19 22:02:00,
2013-02-19 17:08:00,44.8,40.5,29.74,SSW,213,5.0,14.0,85,0.00,,,0.05,0,HR-IXPWINDi_r2_v1.2.,2013-02-19 22:08:00,
2013-02-19 17:13:00,44.6,40.6,29.73,SW,218,5.0,14.0,86,0.10,,,0.06,0,HR-IXPWINDi_r2_v1.2.,2013-02-19 22:13:00,
2013-02-19 17:18:00,44.4,40.7,29.71,SSW,196,8.0,13.0,87,0.08,,,0.06,12,HR-IXPWINDi_r2_v1.2.,2013-02-19 22:18:00,
2013-02-19 17:24:00,44.2,40.5,29.71,South,172,5.0,13.0,87,0.05,,,0.06,23,HR-IXPWINDi_r2_v1.2.,2013-02-19 22:24:00,
2013-02-19 17:29:00,44.1,40.4,29.71,SSW,201,3.0,8.0,87,0.00,,,0.06,18,HR-IXPWINDi_r2_v1.2.,2013-02-19 22:29:00,
2013-02-19 17:34:00,44.0,40.3,29.71,SSW,209,2.0,8.0,87,0.00,,,0.06,12,HR-IXPWINDi_r2_v1.2.,2013-02-19 22:34:00,
2013-02-19 17:39:00,44.0,40.3,29.72,SSW,209,1.0,5.0,87,0.00,,,0.06,12,HR-IXPWINDi_r2_v1.2.,2013-02-19 22:39:00,
2013-02-19 17:44:00,43.8,40.1,29.72,SW,214,0.0,6.0,87,0.00,,,0.06,11,HR-IXPWINDi_r2_v1.2.,2013-02-19 22:44:00,
2013-02-19 17:49:00,43.6,39.9,29.73,South,188,0.0,7.0,87,0.00,,,0.06,7,HR-IXPWINDi_r2_v1.2.,2013-02-19 22:49:00,
2013-02-19 17:54:00,43.4,40.0,29.73,SSE,159,6.0,10.0,88,0.00,,,0.06,0,HR-IXPWINDi_r2_v1.2.,2013-02-19 22:54:00,
2013-02-19 17:59:00,43.4,40.0,29.73,South,177,4.0,10.0,88,0.00,,,0.06,0,HR-IXPWINDi_r2_v1.2.,2013-02-19 22:59:00,
2013-02-19 18:05:00,43.3,39.9,29.73,SSW,193,0.0,9.0,88,0.00,,,0.06,0,HR-IXPWINDi_r2_v1.2.,2013-02-19 23:05:00,
2013-02-19 18:10:00,43.3,39.9,29.73,SSW,193,0.0,5.0,88,0.00,,,0.06,0,HR-IXPWINDi_r2_v1.2.,2013-02-19 23:10:00,
2013-02-19 18:15:00,43.2,40.1,29.73,SSW,193,0.0,4.0,89,0.00,,,0.06,0,HR-IXPWINDi_r2_v1.2.,2013-02-19 23:15:00,
2013-02-19 18:20:00,43.1,40.0,29.74,SSW,193,0.0,4.0,89,0.00,,,0.06,0,HR-IXPWINDi_r2_v1.2.,2013-02-19 23:20:00,
2013-02-19 18:25:00,43.1,40.0,29.74,SSW,193,0.0,4.0,89,0.00,,,0.06,0,HR-IXPWINDi_r2_v1.2.,2013-02-19 23:25:00,
2013-02-19 18:31:00,42.9,39.8,29.74,SSW,193,0.0,5.0,89,0.00,,,0.06,0,HR-IXPWINDi_r2_v1.2.,2013-02-19 23:31:00,
2013-02-19 18:36:00,42.8,39.4,29.75,SSW,193,3.0,5.0,88,0.00,,,0.06,0,HR-IXPWINDi_r2_v1.2.,2013-02-19 23:36:00,
2013-02-19 18:41:00,42.5,39.4,29.75,SSW,193,3.0,4.0,89,0.00,,,0.06,0,HR-IXPWINDi_r2_v1.2.,2013-02-19 23:41:00,
2013-02-19 18:46:00,42.3,39.2,29.75,SSW,193,1.0,4.0,89,0.00,,,0.06,0,HR-IXPWINDi_r2_v1.2.,2013-02-19 23:46:00,
2013-02-19 18:52:00,42.2,39.1,29.76,SSW,193,0.0,4.0,89,0.00,,,0.06,0,HR-IXPWINDi_r2_v1.2.,2013-02-19 23:52:00,
2013-02-19 18:57:00,42.0,38.9,29.76,SSW,193,1.0,4.0,89,0.00,,,0.06,0,HR-IXPWINDi_r2_v1.2.,2013-02-19 23:57:00,
2013-02-19 19:02:00,41.8,38.7,29.76,SSW,193,1.0,5.0,89,0.00,,,0.06,0,HR-IXPWINDi_r2_v1.2.,2013-02-20 00:02:00,
2013-02-19 19:07:00,41.6,38.8,29.77,SSW,193,0.0,5.0,90,0.00,,,0.06,0,HR-IXPWINDi_r2_v1.2.,2013-02-20 00:07:00,
2013-02-19 19:13:00,41.4,38.6,29.76,SSW,193,0.0,3.0,90,0.00,,,0.06,0,HR-IXPWINDi_r2_v1.2.,2013-02-20 00:13:00,
2013-02-19 19:18:00,41.3,38.3,29.77,SSW,193,0.0,3.0,89,0.00,,,0.06,0,HR-IXPWINDi_r2_v1.2.,2013-02-20 00:18:00,
2013-02-19 19:23:00,41.0,38.2,29.77,West,269,0.0,7.0,90,0.00,,,0.06,0,HR-IXPWINDi_r2_v1.2.,2013-02-20 00:23:00,
2013-02-19 19:28:00,40.7,38.0,29.77,West,269,5.0,9.0,90,0.00,,,0.06,0,HR-IXPWINDi_r2_v1.2.,2013-02-20 00:28:00,
2013-02-19 19:33:00,40.6,37.9,29.77,West,266,4.0,10.0,90,0.00,,,0.06,0,HR-IXPWINDi_r2_v1.2.,2013-02-20 00:33:00,
2013-02-19 19:39:00,40.4,37.7,29.77,West,275,7.0,12.0,90,0.00,,,0.06,0,HR-IXPWINDi_r2_v1.2.,2013-02-20 00:39:00,
2013-02-19 19:44:00,40.6,36.7,29.78,West,262,10.0,14.0,86,0.00,,,0.06,0,HR-IXPWINDi_r2_v1.2.,2013-02-20 00:44:00,
2013-02-19 19:49:00,41.0,35.3,29.78,West,270,7.0,19.0,80,0.00,,,0.06,0,HR-IXPWINDi_r2_v1.2.,2013-02-20 00:49:00,
2013-02-19 19:54:00,41.4,34.4,29.78,West,259,6.0,19.0,76,0.00,,,0.06,0,HR-IXPWINDi_r2_v1.2.,2013-02-20 00:54:00,
2013-02-19 19:59:00,41.9,33.5,29.78,WNW,285,13.0,20.0,72,0.00,,,0.06,0,HR-IXPWINDi_r2_v1.2.,2013-02-20 00:59:00,
2013-02-19 20:05:00,42.1,32.6,29.78,WNW,288,4.0,20.0,69,0.00,,,0.06,0,HR-IXPWINDi_r2_v1.2.,2013-02-20 01:05:00,
2013-02-19 20:10:00,42.4,32.2,29.79,West,280,8.0,18.0,67,0.00,,,0.06,0,HR-IXPWINDi_r2_v1.2.,2013-02-20 01:10:00,
2013-02-19 20:15:00,42.5,31.5,29.79,West,267,7.0,19.0,65,0.00,,,0.06,0,HR-IXPWINDi_r2_v1.2.,2013-02-20 01:15:00,
2013-02-19 20:20:00,42.6,31.6,29.79,WNW,287,8.0,19.0,65,0.00,,,0.06,0,HR-IXPWINDi_r2_v1.2.,2013-02-20 01:20:00,
2013-02-19 20:26:00,42.5,31.5,29.79,WSW,257,1.0,17.0,65,0.00,,,0.06,0,HR-IXPWINDi_r2_v1.2.,2013-02-20 01:26:00,
2013-02-19 20:31:00,42.3,31.3,29.79,West,277,1.0,12.0,65,0.00,,,0.06,0,HR-IXPWINDi_r2_v1.2.,2013-02-20 01:31:00,
2013-02-19 20:36:00,42.2,31.6,29.79,West,274,10.0,13.0,66,0.00,,,0.06,0,HR-IXPWINDi_r2_v1.2.,2013-02-20 01:36:00,
2013-02-19 20:41:00,42.1,31.2,29.80,West,278,9.0,15.0,65,0.00,,,0.06,0,HR-IXPWINDi_r2_v1.2.,2013-02-20 01:41:00,
2013-02-19 20:46:00,42.0,31.4,29.80,WNW,286,6.0,15.0,66,0.00,,,0.06,0,HR-IXPWINDi_r2_v1.2.,2013-02-20 01:46:00,
2013-02-19 20:52:00,41.8,31.2,29.80,West,267,11.0,16.0,66,0.00,,,0.06,0,HR-IXPWINDi_r2_v1.2.,2013-02-20 01:52:00,
2013-02-19 20:57:00,41.7,30.8,29.80,WNW,290,6.0,18.0,65,0.00,,,0.06,0,HR-IXPWINDi_r2_v1.2.,2013-02-20 01:57:00,
2013-02-19 21:02:00,41.7,30.4,29.80,WNW,292,6.0,18.0,64,0.00,,,0.06,0,HR-IXPWINDi_r2_v1.2.,2013-02-20 02:02:00,
2013-02-19 21:07:00,41.7,30.4,29.80,West,278,6.0,19.0,64,0.00,,,0.06,0,HR-IXPWINDi_r2_v1.2.,2013-02-20 02:07:00,
2013-02-19 21:12:00,41.6,29.9,29.80,WNW,287,10.0,19.0,63,0.00,,,0.06,0,HR-IXPWINDi_r2_v1.2.,2013-02-20 02:12:00,
2013-02-19 21:18:00,41.5,29.4,29.80,WNW,287,4.0,18.0,62,0.00,,,0.06,0,HR-IXPWINDi_r2_v1.2.,2013-02-20 02:18:00,
2013-02-19 21:23:00,41.4,29.3,29.81,West,265,9.0,18.0,62,0.00,,,0.06,0,HR-IXPWINDi_r2_v1.2.,2013-02-20 02:23:00,
2013-02-19 21:28:00,41.1,29.1,29.81,West,277,3.0,14.0,62,0.00,,,0.06,0,HR-IXPWINDi_r2_v1.2.,2013-02-20 02:28:00,
2013-02-19 21:33:00,41.0,29.0,29.81,WNW,286,3.0,14.0,62,0.00,,,0.06,0,HR-IXPWINDi_r2_v1.2.,2013-02-20 02:33:00,
2013-02-19 21:38:00,40.8,29.2,29.81,WNW,285,11.0,14.0,63,0.00,,,0.06,0,HR-IXPWINDi_r2_v1.2.,2013-02-20 02:38:00,
2013-02-19 21:43:00,40.7,28.7,29.81,WNW,290,19.0,19.0,62,0.00,,,0.06,0,HR-IXPWINDi_r2_v1.2.,2013-02-20 02:43:00,
2013-02-19 21:48:00,40.6,28.2,29.81,West,271,7.0,19.0,61,0.00,,,0.06,0,HR-IXPWINDi_r2_v1.2.,2013-02-20 02:48:00,
2013-02-19 21:54:00,40.5,28.1,29.81,WNW,290,10.0,19.0,61,0.00,,,0.06,0,HR-IXPWINDi_r2_v1.2.,2013-02-20 02:54:00,
2013-02-19 21:59:00,40.3,27.9,29.81,WNW,290,11.0,11.0,61,0.00,,,0.06,0,HR-IXPWINDi_r2_v1.2.,2013-02-20 02:59:00,
2013-02-19 22:04:00,40.0,27.6,29.82,NW,311,4.0,16.0,61,0.00,,,0.06,0,HR-IXPWINDi_r2_v1.2.,2013-02-20 03:04:00,
2013-02-19 22:09:00,39.9,27.5,29.82,NW,309,9.0,16.0,61,0.00,,,0.06,0,HR-IXPWINDi_r2_v1.2.,2013-02-20 03:09:00,
2013-02-19 22:14:00,39.7,26.9,29.82,WNW,302,12.0,17.0,60,0.00,,,0.06,0,HR-IXPWINDi_r2_v1.2.,2013-02-20 03:14:00,
2013-02-19 22:19:00,39.5,26.7,29.82,WNW,284,8.0,17.0,60,0.00,,,0.06,0,HR-IXPWINDi_r2_v1.2.,2013-02-20 03:19:00,
2013-02-19 22:24:00,39.3,26.6,29.82,WNW,299,6.0,14.0,60,0.00,,,0.06,0,HR-IXPWINDi_r2_v1.2.,2013-02-20 03:24:00,
2013-02-19 22:30:00,39.1,26.4,29.82,NW,304,6.0,14.0,60,0.00,,,0.06,0,HR-IXPWINDi_r2_v1.2.,2013-02-20 03:30:00,
2013-02-19 22:35:00,38.9,26.2,29.82,WNW,290,4.0,15.0,60,0.00,,,0.06,0,HR-IXPWINDi_r2_v1.2.,2013-02-20 03:35:00,
2013-02-19 22:40:00,38.8,25.7,29.82,West,276,7.0,19.0,59,0.00,,,0.06,0,HR-IXPWINDi_r2_v1.2.,2013-02-20 03:40:00,
2013-02-19 22:45:00,38.7,25.6,29.82,WNW,300,3.0,19.0,59,0.00,,,0.06,0,HR-IXPWINDi_r2_v1.2.,2013-02-20 03:45:00,
2013-02-19 22:50:00,38.6,25.9,29.82,WNW,292,2.0,19.0,60,0.00,,,0.06,0,HR-IXPWINDi_r2_v1.2.,2013-02-20 03:50:00,
2013-02-19 22:56:00,38.5,25.8,29.82,West,277,8.0,15.0,60,0.00,,,0.06,0,HR-IXPWINDi_r2_v1.2.,2013-02-20 03:56:00,
2013-02-19 23:01:00,38.4,25.3,29.83,WNW,297,7.0,15.0,59,0.00,,,0.06,0,HR-IXPWINDi_r2_v1.2.,2013-02-20 04:01:00,
2013-02-19 23:06:00,38.5,25.0,29.83,NW,310,5.0,16.0,58,0.00,,,0.06,0,HR-IXPWINDi_r2_v1.2.,2013-02-20 04:06:00,
2013-02-19 23:11:00,38.6,24.7,29.83,SW,236,12.0,22.0,57,0.00,,,0.06,0,HR-IXPWINDi_r2_v1.2.,2013-02-20 04:11:00,
2013-02-19 23:17:00,38.6,24.7,29.83,WSW,254,7.0,22.0,57,0.00,,,0.06,0,HR-IXPWINDi_r2_v1.2.,2013-02-20 04:17:00,
2013-02-19 23:22:00,38.6,24.3,29.83,West,267,8.0,18.0,56,0.00,,,0.06,0,HR-IXPWINDi_r2_v1.2.,2013-02-20 04:22:00,
2013-02-19 23:27:00,38.6,24.3,29.83,WSW,257,11.0,21.0,56,0.00,,,0.06,0,HR-IXPWINDi_r2_v1.2.,2013-02-20 04:27:00,
2013-02-19 23:32:00,38.6,23.8,29.83,West,268,10.0,21.0,55,0.00,,,0.06,0,HR-IXPWINDi_r2_v1.2.,2013-02-20 04:32:00,
2013-02-19 23:38:00,38.5,23.7,29.83,West,273,19.0,21.0,55,0.00,,,0.06,0,HR-IXPWINDi_r2_v1.2.,2013-02-20 04:38:00,
2013-02-19 23:43:00,38.4,23.6,29.83,WNW,290,9.0,20.0,55,0.00,,,0.06,0,HR-IXPWINDi_r2_v1.2.,2013-02-20 04:43:00,
2013-02-19 23:48:00,38.4,23.6,29.83,NW,315,6.0,23.0,55,0.00,,,0.06,0,HR-IXPWINDi_r2_v1.2.,2013-02-20 04:48:00,
2013-02-19 23:53:00,38.3,23.5,29.83,WNW,289,11.0,23.0,55,0.00,,,0.06,0,HR-IXPWINDi_r2_v1.2.,2013-02-20 04:53:00,
2013-02-19 23:58:00,38.2,23.4,29.83,West,264,4.0,22.0,55,0.00,,,0.06,0,HR-IXPWINDi_r2_v1.2.,2013-02-20 04:58:00,